Showing default

OPS 9322 (IDSCS 9), 2649

Orbit data source: Space-Track

OPS 9322 (IDSCS 9), 2649 is a payload satellite owned by USAF SSD (US) in GEO that was launched on Wed, 18 Jan 1967 UTC via a TITAN IIIC launch vehicle from the Air Force Eastern Test Range (AFETR). Payload-class satellites include a variety of spacecraft equipped with specific instruments for various scientific and technological missions. These include communications satellites like Starlink; space stations such as the ISS; scientific satellites like the Hubble; Earth observation satellites from companies like Planet Labs, Umbra, and HawkEye 360; GPS; miniature CubeSats for education and research; and military/defense satellites.

Loading next visibility...
Identifier
2649, 1967-003B
Orbit
GEO
Country
Flag of USUS
Related business
Manufacturer
Philco-Ford WDL
Mission
Non-operational spacecraft
Bus & Motor
IDCSP, Unknown motor
Mass
45 kg wet, 45 kg dry
Launch date (UTC)
1967-01-18 (59 years ago)
Launch vehicle
TITAN IIIC
Launch site
Air Force Eastern Test Range (AFETR)
Object type
Payload
Rocket body
Debris
Shape & HBR
Unknown
Radar Cross Section
Medium (>0.1 m² and <1 m²)

Expand to show TLE details & history
Last TLE update: 2 days ago

TLE from 2 days ago
0 OPS 9322 (IDSCS 9)
1 02649U 67003B   25292.40334727 -.00000111  00000-0  00000-0 0  9991
2 02649   7.8545  46.7471 0035159 115.4841 249.9936  1.08282362136833
Epoch: 2025-10-19T09:40Z
TLE epoch observation values (Epoch: 2025-10-19T09:40:49.204Z)
Latitude
0.69642°
Longitude
-121.5484°
Altitude
33,729.347 km
Speed
3.151 km/s
True Right ascension
03h 27m 06s
True Declination
0° 41' 44"
Sunlit
Object was in daylight at epoch
Visualization orbit readout
Latitude
Unknown
Longitude
Unknown
Altitude
Unknown
Speed
Unknown
Apparent Right ascension
Unknown
Apparent Declination
Unknown
Sunlit
N/A
Visualization observer readout
Local Sidereal Time
18:33:15
Azimuth
Unknown
Elevation
Unknown
Doppler factor
Unknown
Orbital elements
Apogee altitude
33,822.488 km
Perigee altitude
33,540.796 km
Semi-major axis
40,059.779 km
Eccentricity
0.00352
Inclination
7.8545°
RAAN
46.7471°
Arg. of periapsis
115.4841°
True anomaly
249.61559°
Mean anomaly
249.9936°
Eccentric anomaly
249.80454°
Mean motion
0.2707 °/min
Orbital period
1,329.91 mins
BSTAR
0
Loading maneuver chart data...
Computing Atmospheric mass density...
Loading historical data...
Loading historical data...
Loading historical data...
Loading historical data...
Loading historical data...
Loading historical data...
Loading historical data...

Documentation

Showing up to 5 results
|